Location: Unspecified
(29.0962°N, 0.0000°E)
Time: 02:47:35
(UTC+00:00)

POLYITAN 1 - Visible Passes

Search period start: 04 April 2026 00:00
Search period end: 14 April 2026 00:00
Orbit: 468 x 481 km, 98.1° (Epoch: 29 March)

Date Brightness Start Highest point End Pass type
(mag) Time Alt. Az. Time Alt. Az. Time Alt. Az.
6 Apr ? 19:07:34 10° SW 19:10:07 19° W 19:12:40 10° NW visible
9 Apr ? 19:17:46 10° SW 19:19:46 15° W 19:21:45 10° WNW visible
10 Apr ? 18:48:31 10° S 18:51:46 37° W 18:55:02 10° NNW visible
12 Apr ? 19:27:57 10° WSW 19:29:02 11° W 19:30:05 10° WNW visible
13 Apr ? 18:57:49 10° SSW 19:00:52 28° W 19:03:56 10° NW visible
